Auburn, AL

3:19 AM CDT on May 21, 2018 (GMT -0500)
Auburn-opelika-pitts

Weather History for KAUO - February, 2012

Change the Weather History Date:

Thursday, February 9, 2012

  Actual Average Record
Temperature  
Mean Temperature 46 °F -  
Max Temperature 55 °F - 75 °F (1965)
Min Temperature 37 °F - 16 °F (1971)
Degree Days  
Heating Degree Days 19    
Month to date heating degree days 58  
Since 1 July heating degree days 1165  
Moisture  
Dew Point 30 °F    
Average Humidity 58    
Maximum Humidity 81    
Minimum Humidity 36    
Precipitation  
Precipitation 0.00 in - 1.11 in (2005)
Month to date precipitation 0.03  
Year to date precipitation 3.40  
Sea Level Pressure  
Sea Level Pressure 30.25 in    
Wind  
Wind Speed 5 mph (North)    
Max Wind Speed 12 mph    
Max Gust Speed 16 mph    
Visibility 10 miles    
Events      
T = Trace of Precipitation, MM = Missing Value Source: NWS Daily Summary

Daily Weather History Graph

Daily Weather History Graph

Search for Another Location

Airport or City:

Astronomy

Feb. 09, 2012 Rise Set
Actual Time 6:30 AM CST 5:21 PM CST
Civil Twilight 6:05 AM CST 5:47 PM CST
Nautical Twilight 5:36 AM CST 6:16 PM CST
Astronomical Twilight 5:07 AM CST 6:45 PM CST
Moon 7:37 PM CST (2/9) 7:16 AM CST (2/9)
Length of Visible Light 11h 41m
Length of Day
10h 51m
Waning Gibbous, 96% of the Moon is Illuminated
Feb 9
Waning Gibbous
Feb 14
Last Quarter
Feb 21
New
Feb 29
First Quarter
Mar 8
Full

Hourly Weather History & Observations

Time (CST) Temp. Windchill Dew Point Humidity Pressure Visibility Wind Dir Wind Speed Gust Speed Precip Events Conditions
12:15 AM 41.0 °F 36.4 °F 32.0 °F 70% 30.26 in 10.0 mi North 6.9 mph - N/A   Clear
12:35 AM 41.0 °F 36.4 °F 32.0 °F 70% 30.26 in 10.0 mi North 6.9 mph - N/A   Clear
12:55 AM 39.2 °F 35.9 °F 32.0 °F 75% 30.26 in 10.0 mi North 4.6 mph - N/A   Clear
1:15 AM 39.2 °F 35.9 °F 30.2 °F 70% 30.26 in 10.0 mi NNE 4.6 mph - N/A   Clear
1:35 AM 39.2 °F 35.0 °F 30.2 °F 70% 30.25 in 10.0 mi North 5.8 mph - N/A   Clear
1:55 AM 39.2 °F 35.0 °F 30.2 °F 70% 30.25 in 10.0 mi North 5.8 mph - N/A   Clear
2:15 AM 39.2 °F 34.2 °F 30.2 °F 70% 30.25 in 10.0 mi North 6.9 mph - N/A   Clear
2:35 AM 39.2 °F 35.0 °F 30.2 °F 70% 30.25 in 10.0 mi North 5.8 mph - N/A   Clear
2:55 AM 37.4 °F 32.8 °F 30.2 °F 75% 30.25 in 10.0 mi North 5.8 mph - N/A   Clear
3:15 AM 37.4 °F 30.8 °F 32.0 °F 81% 30.24 in 10.0 mi North 9.2 mph - N/A   Clear
3:35 AM 39.2 °F 33.0 °F 32.0 °F 75% 30.24 in 10.0 mi North 9.2 mph - N/A   Clear
3:55 AM 39.2 °F 33.0 °F 30.2 °F 70% 30.25 in 10.0 mi North 9.2 mph - N/A   Clear
4:15 AM 39.2 °F 32.5 °F 30.2 °F 70% 30.25 in 10.0 mi North 10.4 mph - N/A   Clear
4:35 AM 39.2 °F 33.0 °F 30.2 °F 70% 30.25 in 10.0 mi North 9.2 mph - N/A   Clear
4:55 AM 39.2 °F 33.6 °F 30.2 °F 70% 30.26 in 10.0 mi North 8.1 mph - N/A   Clear
5:15 AM 39.2 °F 35.0 °F 30.2 °F 70% 30.26 in 10.0 mi North 5.8 mph - N/A   Clear
5:35 AM 39.2 °F 33.0 °F 30.2 °F 70% 30.26 in 10.0 mi North 9.2 mph - N/A   Clear
5:55 AM 39.2 °F 32.5 °F 30.2 °F 70% 30.26 in 10.0 mi North 10.4 mph - N/A   Clear
6:15 AM 37.4 °F 30.8 °F 30.2 °F 75% 30.26 in 10.0 mi North 9.2 mph - N/A   Clear
6:35 AM 37.4 °F 30.3 °F 30.2 °F 75% 30.26 in 10.0 mi North 10.4 mph - N/A   Clear
6:55 AM 37.4 °F 30.3 °F 30.2 °F 75% 30.26 in 10.0 mi NNE 10.4 mph - N/A   Clear
7:15 AM 37.4 °F 31.4 °F 30.2 °F 75% 30.28 in 10.0 mi NNE 8.1 mph - N/A   Clear
7:35 AM 39.2 °F 34.2 °F 30.2 °F 70% 30.28 in 10.0 mi North 6.9 mph - N/A   Clear
7:55 AM 39.2 °F 33.6 °F 30.2 °F 70% 30.29 in 10.0 mi NNE 8.1 mph 16.1 mph N/A   Clear
8:15 AM 39.2 °F 33.0 °F 30.2 °F 70% 30.30 in 10.0 mi North 9.2 mph - N/A   Clear
8:35 AM 42.8 °F 37.5 °F 30.2 °F 61% 30.31 in 10.0 mi NNE 9.2 mph - N/A   Clear
8:55 AM 42.8 °F 36.6 °F 30.2 °F 61% 30.31 in 10.0 mi NNE 11.5 mph - N/A   Clear
9:15 AM 42.8 °F 38.0 °F 28.4 °F 57% 30.31 in 10.0 mi NNE 8.1 mph - N/A   Clear
9:35 AM 44.6 °F 40.2 °F 30.2 °F 57% 30.31 in 10.0 mi ESE 8.1 mph - N/A   Clear
9:55 AM 44.6 °F 40.7 °F 32.0 °F 61% 30.32 in 10.0 mi East 6.9 mph - N/A   Clear
10:15 AM 44.6 °F 41.4 °F 30.2 °F 57% 30.31 in 10.0 mi NE 5.8 mph - N/A   Clear
10:35 AM 46.4 °F - 30.2 °F 53% 30.30 in 10.0 mi Calm Calm - N/A   Clear
10:55 AM 48.2 °F - 30.2 °F 50% 30.29 in 10.0 mi NW 4.6 mph - N/A   Clear
11:15 AM 46.4 °F 44.3 °F 30.2 °F 53% 30.28 in 10.0 mi South 4.6 mph - N/A   Clear
11:35 AM 48.2 °F - 30.2 °F 50% 30.27 in 10.0 mi NE 3.5 mph - N/A   Clear
11:55 AM 48.2 °F - 32.0 °F 54% 30.25 in 10.0 mi SSW 3.5 mph - N/A   Clear
12:15 PM 50.0 °F - 30.2 °F 47% 30.24 in 10.0 mi WSW 5.8 mph - N/A   Clear
12:35 PM 50.0 °F - 30.2 °F 47% 30.23 in 10.0 mi South 4.6 mph - N/A   Clear
12:55 PM 51.8 °F - 30.2 °F 44% 30.22 in 10.0 mi Calm Calm - N/A   Clear
1:15 PM 51.8 °F - 32.0 °F 47% 30.21 in 10.0 mi SE 4.6 mph - N/A   Clear
1:35 PM 53.6 °F - 30.2 °F 41% 30.21 in 10.0 mi South 3.5 mph - N/A   Clear
1:55 PM 53.6 °F - 30.2 °F 41% 30.21 in 10.0 mi Calm Calm - N/A   Clear
2:15 PM 55.4 °F - 30.2 °F 38% 30.20 in 10.0 mi North 9.2 mph - N/A   Clear
2:35 PM 53.6 °F - 30.2 °F 41% 30.20 in 10.0 mi Calm Calm - N/A   Clear
2:55 PM 55.4 °F - 28.4 °F 36% 30.20 in 10.0 mi Calm Calm - N/A   Clear
3:15 PM 55.4 °F - 28.4 °F 36% 30.20 in 10.0 mi NW 4.6 mph - N/A   Clear
3:35 PM 55.4 °F - 30.2 °F 38% 30.20 in 10.0 mi SW 5.8 mph - N/A   Clear
3:55 PM 55.4 °F - 28.4 °F 36% 30.21 in 10.0 mi WSW 4.6 mph - N/A   Clear
4:15 PM 55.4 °F - 30.2 °F 38% 30.20 in 10.0 mi West 3.5 mph - N/A   Clear
4:35 PM 55.4 °F - 30.2 °F 38% 30.20 in 10.0 mi WNW 3.5 mph - N/A   Clear
4:55 PM 55.4 °F - 30.2 °F 38% 30.20 in 10.0 mi Calm Calm - N/A   Clear
5:15 PM 53.6 °F - 30.2 °F 41% 30.20 in 10.0 mi Calm Calm - N/A   Clear
5:35 PM 53.6 °F - 30.2 °F 41% 30.20 in 10.0 mi West 5.8 mph - N/A   Clear
5:55 PM 51.8 °F - 30.2 °F 44% 30.20 in 10.0 mi WNW 4.6 mph - N/A   Clear
6:15 PM 50.0 °F - 30.2 °F 47% 30.20 in 10.0 mi NW 4.6 mph - N/A   Clear
6:35 PM 50.0 °F - 30.2 °F 47% 30.20 in 10.0 mi NW 4.6 mph - N/A   Clear
6:55 PM 48.2 °F - 30.2 °F 50% 30.19 in 10.0 mi NNW 4.6 mph - N/A   Clear
7:15 PM 46.4 °F 45.2 °F 30.2 °F 53% 30.19 in 10.0 mi NNW 3.5 mph - N/A   Clear
7:35 PM 46.4 °F 45.2 °F 30.2 °F 53% 30.19 in 10.0 mi North 3.5 mph - N/A   Clear
7:55 PM 44.6 °F - 32.0 °F 61% 30.20 in 10.0 mi Calm Calm - N/A   Clear
8:15 PM 44.6 °F - 33.8 °F 66% 30.20 in 10.0 mi Calm Calm - N/A   Clear
8:35 PM 44.6 °F - 33.8 °F 66% 30.20 in 10.0 mi Calm Calm - N/A   Clear
8:55 PM 44.6 °F - 30.2 °F 57% 30.21 in 10.0 mi Calm Calm - N/A   Clear
9:15 PM 42.8 °F 38.0 °F 32.0 °F 66% 30.21 in 10.0 mi WNW 8.1 mph - N/A   Clear
9:35 PM 41.0 °F - 33.8 °F 76% 30.20 in 10.0 mi Calm Calm - N/A   Clear
9:55 PM 41.0 °F 38.0 °F 33.8 °F 76% 30.21 in 10.0 mi NW 4.6 mph - N/A   Clear
10:15 PM 39.2 °F 35.9 °F 33.8 °F 81% 30.20 in 10.0 mi NNW 4.6 mph - N/A   Clear
10:35 PM 39.2 °F 35.9 °F 33.8 °F 81% 30.20 in 10.0 mi North 4.6 mph - N/A   Clear
10:55 PM 39.2 °F - 33.8 °F 81% 30.19 in 10.0 mi Calm Calm - N/A   Clear
11:15 PM 39.2 °F 37.0 °F 33.8 °F 81% 30.18 in 10.0 mi East 3.5 mph - N/A   Clear
11:35 PM 39.2 °F - 33.8 °F 81% 30.18 in 10.0 mi Calm Calm - N/A   Clear
11:55 PM 42.8 °F - 33.8 °F 70% 30.18 in 10.0 mi Calm Calm - N/A   Clear